Regional Weather Roundup
Issued by NWS

Home | Current Version | Previous Version | Text Only | Print | Product List | Glossary On
Versions: 1 2 3 4 5 6 7 8 9 10 11 12 13 14 15 16 17 18 19 20 21 22 23 24 25 26 27
000
ASUS42 KKEY 230010
RWRKEY

FLORIDA REGIONAL WEATHER ROUNDUP FOR THE FLORIDA KEYS
NATIONAL WEATHER SERVICE KEY WEST FLORIDA
800 PM EDT WED OCT 22 2014

...SOUTH FLORIDA AND THE KEYS...

CITY           SKY/WX    TMP DP  RH WIND       PRES   REMARKS
FORT MYERS     CLOUDY    78  71  79 CALM      29.92R
SW REGIONAL AP CLOUDY    76  72  87 CALM      29.93R
NAPLES         CLOUDY    79  70  74 SE3       29.92R
MIAMI          LGT RAIN  75  72  90 W3        29.95R
WEST KENDALL   LGT RAIN  76  73  91 CALM      29.95R
HOMESTEAD      CLOUDY    74  73  95 W2        29.95R
MARATHON       LGT RAIN  74  50  43 E3        29.94R
BOCA CHICA NAS LGT RAIN  73  72  96 E5        29.94R
KEY WEST INTL  HVY RAIN  73  73 100 E7        29.94R FOG

...INTERNATIONAL WEATHER...

CITY           SKY/WX    TMP DP  RH WIND       PRES   REMARKS
NASSAU BAHAMAS CLOUDY    79  79 100 CALM      29.94R
CANCUN MEXICO  CLOUDY    77  75  94 SE2       29.79R
COZUMEL MEXICO MOCLDY    73  73 100 CALM      29.79S

ADJACENT COASTAL WATERS...

STATION/POSITION TIME  SKY/WX   TEMP    WIND        PRES    WAVE
                                AIR SEA DIR/SP/G            HT/PER
                 (UTC)          (F)     (DEG/KT/KT) (MB)    (FT/S)
PULASKI SHOAL LI 2300            77      80/ 12/ 14 1012.6R
SAND KEY         2241            75      90/ 13/ 15 1013.0R
SOMBRERO KEY     0000            76      80/ 14/ 15 1014.5R
LONG KEY         0000            76 79  100/  7/  8 1014.9R
MOLASSES REEF    0000            77 83  120/  6/  6 1014.2R
FOWEY ROCKS      0000            79 81   10/  3/  4 1014.2R
Buoy 42080       NOT AVBL

$$



USA.gov is the U.S. government's official web portal to all federal, state and local government web resources and services.